Location: North Evanston
(42.0634°N, 87.6976°W)
Time: 14:41:38
(UTC+00:00)

Vanguard 2 Rocket - Pass Details

Date: 16 May 2026
Orbit: 553 x 3286 km, 32.9° (Epoch: 6 June)

Event Time Altitude Azimuth Distance (km) Brightness Sun altitude
Rises 00:17:28 0° 278° (W) 7,248 13.6 7.3°
Reaches altitude 10° 00:25:11 10° 262° (W) 6,198 12.4 5.9°
Maximum altitude 00:35:11 17° 230° (SW) 5,305 11.2 4.2°
Drops below altitude 10° 00:44:01 10° 197° (SSW) 5,321 10.8 2.7°
Sets 00:49:53 0° 179° (S) 5,832 10.8 1.7°
